TimeCST,TemperatureF,Dew PointF,Humidity,Sea Level PressureIn,VisibilityMPH,Wind Direction,Wind SpeedMPH,Gust SpeedMPH,PrecipitationIn,Events,Conditions,WindDirDegrees,DateUTC
12:15 AM,50.0,32.0,50,29.93,10.0,NW,11.5,-,N/A,,Clear,310,2014-02-19 06:15:00
12:35 AM,50.0,32.0,50,29.95,10.0,NW,6.9,18.4,N/A,,Clear,310,2014-02-19 06:35:00
12:55 AM,48.2,32.0,54,29.95,10.0,NW,8.1,17.3,N/A,,Clear,320,2014-02-19 06:55:00
1:15 AM,46.4,32.0,57,29.96,10.0,NW,10.4,16.1,N/A,,Clear,310,2014-02-19 07:15:00
1:35 AM,44.6,32.0,61,29.97,10.0,WNW,8.1,-,N/A,,Clear,290,2014-02-19 07:35:00
1:55 AM,44.6,32.0,61,29.97,10.0,West,5.8,-,N/A,,Clear,280,2014-02-19 07:55:00
2:15 AM,44.6,32.0,61,29.97,10.0,WNW,5.8,-,N/A,,Clear,290,2014-02-19 08:15:00
2:35 AM,44.6,32.0,61,29.97,10.0,West,5.8,-,N/A,,Clear,270,2014-02-19 08:35:00
2:55 AM,42.8,32.0,66,29.96,10.0,WSW,4.6,-,N/A,,Clear,250,2014-02-19 08:55:00
3:15 AM,42.8,32.0,66,29.96,10.0,WSW,6.9,-,N/A,,Clear,240,2014-02-19 09:15:00
3:35 AM,42.8,32.0,66,29.96,10.0,West,4.6,-,N/A,,Clear,260,2014-02-19 09:35:00
3:55 AM,42.8,32.0,66,29.96,10.0,WSW,5.8,-,N/A,,Clear,250,2014-02-19 09:55:00
4:15 AM,41.0,32.0,70,29.96,10.0,West,5.8,-,N/A,,Clear,270,2014-02-19 10:15:00
4:35 AM,41.0,32.0,70,29.97,10.0,West,4.6,-,N/A,,Clear,260,2014-02-19 10:35:00
4:55 AM,37.4,30.2,75,29.97,10.0,West,4.6,-,N/A,,Clear,270,2014-02-19 10:55:00
5:15 AM,41.0,32.0,70,29.97,10.0,WSW,5.8,-,N/A,,Clear,250,2014-02-19 11:15:00
5:35 AM,39.2,32.0,75,29.97,10.0,WSW,4.6,-,N/A,,Clear,250,2014-02-19 11:35:00
5:55 AM,39.2,32.0,75,29.99,10.0,West,4.6,-,N/A,,Clear,260,2014-02-19 11:55:00
6:15 AM,39.2,32.0,75,29.99,10.0,WSW,5.8,-,N/A,,Clear,250,2014-02-19 12:15:00
6:35 AM,39.2,32.0,75,30.00,10.0,West,4.6,-,N/A,,Clear,260,2014-02-19 12:35:00
6:55 AM,39.2,32.0,75,30.00,10.0,WSW,4.6,-,N/A,,Clear,250,2014-02-19 12:55:00
7:15 AM,39.2,32.0,75,30.02,10.0,SW,4.6,-,N/A,,Clear,230,2014-02-19 13:15:00
7:35 AM,35.6,30.2,81,30.01,10.0,Calm,Calm,-,N/A,,Clear,0,2014-02-19 13:35:00
7:55 AM,33.8,30.2,87,30.02,10.0,South,3.5,-,N/A,,Clear,190,2014-02-19 13:55:00
8:15 AM,33.8,32.0,93,30.02,10.0,Calm,Calm,-,N/A,,Clear,0,2014-02-19 14:15:00
8:35 AM,41.0,32.0,70,30.02,10.0,Calm,Calm,-,N/A,,Clear,0,2014-02-19 14:35:00
8:55 AM,37.4,32.0,81,30.02,10.0,SSW,5.8,-,N/A,,Clear,200,2014-02-19 14:55:00
9:15 AM,42.8,32.0,66,30.04,10.0,SW,6.9,-,N/A,,Clear,220,2014-02-19 15:15:00
9:35 AM,44.6,32.0,61,30.05,10.0,SSW,6.9,-,N/A,,Clear,210,2014-02-19 15:35:00
9:55 AM,44.6,32.0,61,30.05,10.0,Calm,Calm,-,N/A,,Clear,0,2014-02-19 15:55:00
10:15 AM,46.4,32.0,57,30.04,10.0,Calm,Calm,-,N/A,,Clear,0,2014-02-19 16:15:00
10:35 AM,46.4,32.0,57,30.04,10.0,Calm,Calm,-,N/A,,Clear,0,2014-02-19 16:35:00
10:55 AM,50.0,32.0,50,30.04,10.0,East,3.5,-,N/A,,Clear,100,2014-02-19 16:55:00
11:15 AM,50.0,32.0,50,30.03,10.0,ESE,6.9,-,N/A,,Clear,110,2014-02-19 17:15:00
11:35 AM,51.8,32.0,47,30.02,10.0,ESE,5.8,-,N/A,,Clear,120,2014-02-19 17:35:00
11:55 AM,51.8,32.0,47,30.01,10.0,SE,6.9,-,N/A,,Clear,130,2014-02-19 17:55:00
12:15 PM,53.6,30.2,41,29.99,10.0,SE,4.6,-,N/A,,Clear,130,2014-02-19 18:15:00
12:35 PM,55.4,30.2,38,29.96,10.0,East,5.8,-,N/A,,Clear,90,2014-02-19 18:35:00
12:55 PM,55.4,30.2,38,29.93,10.0,NE,8.1,-,N/A,,Clear,40,2014-02-19 18:55:00
1:15 PM,55.4,28.4,36,29.92,10.0,ENE,6.9,-,N/A,,Clear,70,2014-02-19 19:15:00
1:35 PM,55.4,26.6,33,29.90,10.0,East,9.2,-,N/A,,Clear,80,2014-02-19 19:35:00
1:55 PM,57.2,26.6,31,29.91,10.0,East,11.5,-,N/A,,Clear,90,2014-02-19 19:55:00
2:15 PM,57.2,28.4,33,29.90,10.0,ESE,11.5,-,N/A,,Clear,110,2014-02-19 20:15:00
2:35 PM,57.2,19.4,23,29.88,10.0,East,10.4,16.1,N/A,,Clear,80,2014-02-19 20:35:00
2:55 PM,57.2,24.8,29,29.88,10.0,ESE,9.2,-,N/A,,Clear,110,2014-02-19 20:55:00
3:15 PM,57.2,26.6,31,29.88,10.0,ESE,12.7,-,N/A,,Clear,110,2014-02-19 21:15:00
3:35 PM,59.0,24.8,27,29.88,10.0,ESE,6.9,-,N/A,,Clear,120,2014-02-19 21:35:00
3:55 PM,59.0,26.6,29,29.87,10.0,East,5.8,-,N/A,,Clear,90,2014-02-19 21:55:00
4:15 PM,59.0,26.6,29,29.86,10.0,East,4.6,-,N/A,,Clear,80,2014-02-19 22:15:00
4:35 PM,59.0,26.6,29,29.87,10.0,East,3.5,-,N/A,,Clear,100,2014-02-19 22:35:00
4:55 PM,55.4,23.0,29,29.84,10.0,East,8.1,-,N/A,,Scattered Clouds,100,2014-02-19 22:55:00
5:15 PM,55.4,26.6,33,29.82,10.0,East,10.4,-,N/A,,Mostly Cloudy,100,2014-02-19 23:15:00
5:35 PM,55.4,26.6,33,29.81,10.0,East,10.4,-,N/A,,Scattered Clouds,90,2014-02-19 23:35:00
5:55 PM,55.4,26.6,33,29.80,10.0,East,9.2,-,N/A,,Mostly Cloudy,90,2014-02-19 23:55:00
6:15 PM,53.6,26.6,35,29.80,10.0,East,9.2,-,N/A,,Mostly Cloudy,100,2014-02-20 00:15:00
6:35 PM,53.6,26.6,35,29.79,10.0,East,9.2,-,N/A,,Mostly Cloudy,100,2014-02-20 00:35:00
6:55 PM,53.6,26.6,35,29.78,10.0,East,11.5,17.3,N/A,,Mostly Cloudy,100,2014-02-20 00:55:00
7:15 PM,53.6,26.6,35,29.76,10.0,East,11.5,-,N/A,,Overcast,100,2014-02-20 01:15:00
7:35 PM,53.6,26.6,35,29.75,10.0,East,11.5,-,N/A,,Mostly Cloudy,100,2014-02-20 01:35:00
7:55 PM,53.6,26.6,35,29.74,10.0,ESE,13.8,20.7,N/A,,Scattered Clouds,110,2014-02-20 01:55:00
8:15 PM,53.6,28.4,38,29.76,10.0,ESE,15.0,-,N/A,,Scattered Clouds,120,2014-02-20 02:15:00
8:35 PM,55.4,28.4,36,29.77,10.0,SE,11.5,19.6,N/A,,Mostly Cloudy,130,2014-02-20 02:35:00
8:55 PM,53.6,28.4,38,29.75,10.0,SE,18.4,23.0,N/A,,Overcast,130,2014-02-20 02:55:00
9:15 PM,53.6,30.2,41,29.75,10.0,SE,17.3,-,N/A,,Overcast,130,2014-02-20 03:15:00
9:35 PM,53.6,32.0,44,29.73,10.0,SE,21.9,27.6,N/A,,Overcast,130,2014-02-20 03:35:00
9:55 PM,53.6,33.8,47,29.72,10.0,SE,17.3,27.6,N/A,,Overcast,130,2014-02-20 03:55:00
10:35 PM,53.6,35.6,51,29.70,10.0,SE,19.6,28.8,N/A,,Overcast,130,2014-02-20 04:35:00
10:55 PM,53.6,37.4,54,29.69,10.0,SE,19.6,31.1,N/A,,Overcast,130,2014-02-20 04:55:00
11:15 PM,53.6,37.4,54,29.68,10.0,SE,19.6,31.1,N/A,,Overcast,130,2014-02-20 05:15:00
11:35 PM,53.6,39.2,58,29.67,10.0,SE,19.6,24.2,N/A,,Overcast,130,2014-02-20 05:35:00
11:55 PM,53.6,39.2,58,29.66,10.0,SE,19.6,24.2,N/A,,Overcast,140,2014-02-20 05:55:00